Weather History for Mount Pleasant, IA

Change the Weather History Date:

Tuesday, January 15, 2013

  Actual Average Record
Temperature  
Mean Temperature 20 °F -  
Max Temperature 30 °F 28 °F 58 °F (1953)
Min Temperature 9 °F 12 °F -20 °F (1979)
Degree Days  
Heating Degree Days 46    
Moisture  
Dew Point 9 °F    
Average Humidity 68    
Maximum Humidity 85    
Minimum Humidity 39    
Precipitation  
Precipitation 0.00 in - - ()
Sea Level Pressure  
Sea Level Pressure 30.31 in    
Wind  
Wind Speed 2 mph (SSE)    
Max Wind Speed 8 mph    
Max Gust Speed -    
Visibility 10 miles    
Events      
Averages and records for this station are not official NWS values.
T = Trace of Precipitation, MM = Missing Value Source: NWS Daily Summary

Daily Weather History Graph

Daily Weather History Graph

Search for Another Location

Airport:

Trip Planner

Search our weather history database for the weather conditions in past years. The results will help you decide how hot, cold, wet, or windy it might be!

Date:

Astronomy

Jan. 15, 2013 Rise Set
Actual Time 7:28 AM CST 5:03 PM CST
Civil Twilight 6:58 AM CST 5:33 PM CST
Nautical Twilight 6:24 AM CST 6:07 PM CST
Astronomical Twilight 5:51 AM CST 6:40 PM CST
Moon 9:32 AM CST (1/15) 9:55 PM CST (1/15)
Length of Visible Light 10h 35m
Length of Day
9h 34m
Waxing Crescent, 19% of the Moon is Illuminated
Jan 15
Waxing Crescent
Jan 18
First Quarter
Jan 26
Full
Feb 3
Last Quarter
Feb 10
New

Hourly Weather History & Observations

Time (CST) Temp. Windchill Dew Point Humidity Pressure Visibility Wind Dir Wind Speed Gust Speed Precip Events Conditions
12:15 AM 14.7 °F - 9.3 °F 79% 30.42 in 10.0 mi Calm Calm - N/A   Clear
12:35 AM 14.2 °F - 8.8 °F 79% 30.42 in 10.0 mi Calm Calm - N/A   Clear
12:55 AM 13.6 °F - 8.4 °F 80% 30.41 in 10.0 mi Calm Calm - N/A   Clear
1:15 AM 13.8 °F - 8.4 °F 79% 30.41 in 10.0 mi Calm Calm - N/A   Clear
1:35 AM 12.7 °F - 8.1 °F 82% 30.42 in 10.0 mi Calm Calm - N/A   Clear
1:55 AM 12.7 °F - 8.1 °F 82% 30.41 in 10.0 mi Calm Calm - N/A   Clear
2:15 AM 12.6 °F - 7.9 °F 82% 30.41 in 10.0 mi Calm Calm - N/A   Clear
2:35 AM 12.0 °F 5.9 °F 7.5 °F 82% 30.41 in 10.0 mi South 3.5 mph - N/A   Clear
2:55 AM 11.3 °F - 7.0 °F 83% 30.41 in 10.0 mi Calm Calm - N/A   Clear
3:15 AM 12.2 °F - 7.7 °F 82% 30.41 in 10.0 mi Calm Calm - N/A   Clear
3:35 AM 11.8 °F 3.9 °F 7.7 °F 83% 30.40 in 10.0 mi SSE 4.6 mph - N/A   Clear
3:55 AM 11.3 °F - 7.5 °F 85% 30.40 in 10.0 mi Calm Calm - N/A   Clear
4:15 AM 11.3 °F - 7.5 °F 85% 30.39 in 10.0 mi Calm Calm - N/A   Clear
4:55 AM 11.8 °F - 7.7 °F 83% 30.38 in 10.0 mi Calm Calm - N/A   Clear
5:15 AM 12.2 °F - 7.5 °F 82% 30.37 in 10.0 mi Calm Calm - N/A   Clear
5:35 AM 11.7 °F - 6.8 °F 81% 30.37 in 10.0 mi Calm Calm - N/A   Clear
5:55 AM 11.3 °F - 6.3 °F 80% 30.38 in 10.0 mi Calm Calm - N/A   Clear
6:15 AM 9.7 °F - 5.5 °F 83% 30.38 in 10.0 mi Calm Calm - N/A   Clear
6:35 AM 10.9 °F - 6.4 °F 82% 30.37 in 10.0 mi Calm Calm - N/A   Clear
6:55 AM 10.2 °F 3.8 °F 6.1 °F 83% 30.37 in 10.0 mi SSE 3.5 mph - N/A   Scattered Clouds
7:15 AM 10.0 °F - 6.4 °F 85% 30.38 in 10.0 mi Calm Calm - N/A   Scattered Clouds
7:35 AM 9.9 °F - 6.3 °F 85% 30.39 in 10.0 mi Calm Calm - N/A   Clear
7:55 AM 10.9 °F - 6.8 °F 83% 30.39 in 10.0 mi Calm Calm - N/A   Clear
8:15 AM 11.8 °F - 7.3 °F 82% 30.40 in 10.0 mi Calm Calm - N/A   Clear
8:35 AM 14.2 °F - 9.5 °F 82% 30.42 in 10.0 mi Calm Calm - N/A   Mostly Cloudy
8:55 AM 17.2 °F - 11.3 °F 78% 30.42 in 10.0 mi Calm Calm - N/A   Scattered Clouds
9:15 AM 18.5 °F - 11.8 °F 75% 30.41 in 10.0 mi Calm Calm - N/A   Clear
9:35 AM 20.5 °F - 13.3 °F 74% 30.40 in 10.0 mi Calm Calm - N/A   Scattered Clouds
9:55 AM 21.0 °F - 12.9 °F 71% 30.38 in 10.0 mi Calm Calm - N/A   Clear
10:15 AM 22.8 °F - 14.2 °F 69% 30.36 in 10.0 mi Calm Calm - N/A   Clear
10:35 AM 24.6 °F - 12.7 °F 61% 30.38 in 10.0 mi Calm Calm - N/A   Clear
10:55 AM 26.1 °F 20.5 °F 12.4 °F 56% 30.38 in 10.0 mi SE 4.6 mph - N/A   Clear
11:15 AM 26.6 °F 20.0 °F 13.3 °F 57% 30.38 in 10.0 mi SSE 5.8 mph - N/A   Clear
11:35 AM 28.0 °F 21.7 °F 11.1 °F 49% 30.35 in 10.0 mi ESE 5.8 mph - N/A   Clear
11:55 AM 27.5 °F 23.6 °F 8.6 °F 45% 30.33 in 10.0 mi SE 3.5 mph - N/A   Clear
12:15 PM 28.6 °F 24.8 °F 10.2 °F 46% 30.32 in 10.0 mi SE 3.5 mph - N/A   Clear
12:35 PM 29.1 °F 24.1 °F 9.3 °F 44% 30.31 in 10.0 mi SSE 4.6 mph - N/A   Clear
12:55 PM 29.5 °F 24.5 °F 8.8 °F 42% 30.31 in 10.0 mi SSE 4.6 mph - N/A   Clear
1:15 PM 30.6 °F 23.8 °F 9.9 °F 42% 30.30 in 10.0 mi South 6.9 mph - N/A   Clear
1:35 PM 30.2 °F 23.4 °F 7.7 °F 39% 30.30 in 10.0 mi SSE 6.9 mph - N/A   Clear
1:55 PM 30.2 °F 22.6 °F 8.8 °F 41% 30.29 in 10.0 mi South 8.1 mph - N/A   Scattered Clouds
2:15 PM 30.0 °F 24.1 °F 10.0 °F 43% 30.28 in 10.0 mi SSE 5.8 mph - N/A   Overcast
2:35 PM 29.7 °F 22.8 °F 9.9 °F 44% 30.28 in 10.0 mi South 6.9 mph - N/A   Overcast
2:55 PM 30.0 °F 23.2 °F 11.7 °F 46% 30.28 in 10.0 mi South 6.9 mph - N/A   Scattered Clouds
3:15 PM 30.6 °F 23.1 °F 11.1 °F 44% 30.28 in 10.0 mi SSE 8.1 mph - N/A   Scattered Clouds
3:35 PM 30.2 °F 23.4 °F 10.6 °F 44% 30.28 in 10.0 mi South 6.9 mph - N/A   Clear
3:55 PM 29.3 °F 21.5 °F 10.4 °F 45% 30.28 in 10.0 mi South 8.1 mph - N/A   Clear
4:15 PM 28.9 °F 21.1 °F 9.3 °F 44% 30.28 in 10.0 mi South 8.1 mph - N/A   Clear
4:35 PM 28.0 °F 21.7 °F 9.7 °F 46% 30.28 in 10.0 mi South 5.8 mph - N/A   Clear
4:55 PM 27.1 °F 20.7 °F 11.3 °F 51% 30.27 in 10.0 mi SSE 5.8 mph - N/A   Clear
5:15 PM 23.7 °F 15.6 °F 11.1 °F 59% 30.25 in 10.0 mi SSE 6.9 mph - N/A   Clear
5:35 PM 22.8 °F 16.7 °F 9.7 °F 57% 30.25 in 10.0 mi SSE 4.6 mph - N/A   Clear
5:55 PM 21.2 °F 13.6 °F 9.9 °F 62% 30.25 in 10.0 mi SSE 5.8 mph - N/A   Clear
6:15 PM 21.7 °F 15.5 °F 8.6 °F 57% 30.24 in 10.0 mi SSE 4.6 mph - N/A   Clear
6:35 PM 20.8 °F 13.2 °F 9.3 °F 61% 30.23 in 10.0 mi SSE 5.8 mph - N/A   Clear
6:55 PM 19.2 °F 12.5 °F 10.2 °F 68% 30.23 in 10.0 mi South 4.6 mph - N/A   Clear
7:15 PM 20.8 °F 14.4 °F 11.1 °F 66% 30.23 in 10.0 mi South 4.6 mph - N/A   Clear
7:35 PM 20.1 °F 15.2 °F 11.8 °F 70% 30.21 in 10.0 mi South 3.5 mph - N/A   Clear
7:55 PM 19.6 °F 14.5 °F 11.8 °F 72% 30.21 in 10.0 mi South 3.5 mph - N/A   Clear
8:15 PM 18.9 °F 13.7 °F 12.0 °F 75% 30.20 in 10.0 mi South 3.5 mph - N/A   Clear
8:35 PM 17.8 °F 9.6 °F 11.3 °F 76% 30.18 in 10.0 mi South 5.8 mph - N/A   Clear
8:55 PM 17.2 °F 11.9 °F 10.9 °F 76% 30.18 in 10.0 mi SSW 3.5 mph - N/A   Clear
9:15 PM 16.9 °F 11.5 °F 11.1 °F 78% 30.18 in 10.0 mi SSW 3.5 mph - N/A   Clear
9:35 PM 16.9 °F 8.5 °F 10.2 °F 75% 30.17 in 10.0 mi South 5.8 mph - N/A   Clear
9:55 PM 15.6 °F 5.9 °F 9.0 °F 75% 30.16 in 10.0 mi SSE 6.9 mph - N/A   Clear
10:15 PM 15.8 °F 10.2 °F 9.7 °F 77% 30.15 in 10.0 mi South 3.5 mph - N/A   Clear
10:35 PM 15.3 °F 7.9 °F 10.0 °F 80% 30.15 in 10.0 mi South 4.6 mph - N/A   Clear
10:55 PM 15.8 °F - 9.5 °F 76% 30.15 in 10.0 mi Calm Calm - N/A   Clear
11:15 PM 14.7 °F 9.0 °F 8.6 °F 77% 30.15 in 10.0 mi South 3.5 mph - N/A   Clear
11:35 PM 14.9 °F 9.2 °F 8.6 °F 76% 30.14 in 10.0 mi SSW 3.5 mph - N/A   Clear